Wind_Speed
38 38 36 32 27 20 11 5 4 6 11 5 2 7 4 5 8 3 3 3 3 5 6 4 4 3 2 2 1 1 2 3 5 3 3 3 2 2 4 4 2 1 3 3
32 40 39 36 34 30 14 4 2 4 5 6 7 3 3 6 7 7 7 7 4 2 6 4 4 5 4 4 2 0 3 2 5 4 5 3 3 1 1 2 2 2 3 4
15 36 39 42 39 35 20 5 6 3 4 2 8 8 6 7 4 5 4 4 5 4 5 4 5 5 3 3 2 2 4 3 6 6 7 4 8 5 8 5 4 3 3 5
15 14 45 43 45 40 23 5 7 8 7 10 10 11 10 12 8 3 6 3 7 7 5 4 5 5 4 2 2 2 3 4 4 10 15 14 15 15 11 11 9 5 3 4
23 23 9 47 50 49 24 7 6 3 8 7 19 13 12 15 8 12 8 8 13 10 6 7 7 7 5 3 5 4 2 1 3 6 4 4 9 12 11 11 10 12 10 8
23 23 27 18 52 54 13 11 2 4 9 9 12 16 19 15 12 9 6 15 7 12 14 5 5 0 3 4 5 6 3 2 3 3 4 13 9 4 10 6 7 5 4 3
24 22 20 25 45 63 18 10 5 6 7 12 12 14 19 17 20 13 7 9 11 5 14 13 9 7 3 3 3 2 4 3 2 5 9 3 3 3 1 7 7 10 3 6
23 20 19 25 18 58 39 22 10 7 11 12 8 14 13 13 11 9 10 5 3 15 6 3 3 3 3 4 3 5 5 5 3 3 3 10 1 2 4 4 5 11 11 7
25 23 21 21 28 63 45 28 31 4 9 13 14 13 14 9 12 7 4 4 10 4 3 3 5 5 2 5 4 5 5 6 4 2 3 3 2 1 2 1 7 4 9 10
26 24 20 17 25 57 45 22 34 5 4 7 11 11 11 6 8 8 7 8 5 1 4 4 4 5 1 6 7 7 6 5 9 7 5 7 6 4 2 3 2 2 8 8
25 23 19 15 12 20 47 12 48 20 0 3 5 7 7 5 7 8 10 7 3 5 8 6 5 5 6 4 5 7 9 8 5 5 5 6 11 6 5 2 3 3 6 7
24 25 19 16 20 18 10 5 38 30 5 3 7 6 1 12 11 6 12 2 11 7 5 4 4 4 5 6 5 6 6 5 4 9 5 1 12 0 6 3 2 4 6 7
23 25 21 16 12 11 15 2 29 17 3 0 3 5 6 9 13 16 6 2 4 6 3 5 3 4 5 7 6 6 7 7 3 3 7 13 9 10 9 9 9 6 6 5
21 22 23 20 14 14 24 13 24 29 4 3 7 6 5 11 12 14 8 10 8 7 3 3 3 3 6 4 0 6 3 11 9 11 11 6 12 13 13 11 11 12 11 11
21 21 22 22 19 15 11 11 16 36 7 4 4 4 4 12 15 14 16 18 8 4 4 3 4 3 4 1 1 5 8 9 8 9 6 6 8 6 7 10 12 12 12 11
19 19 18 18 17 11 1 2 16 34 12 4 4 3 3 4 12 15 11 8 3 3 4 3 3 2 4 5 7 14 15 14 17 18 14 12 15 6 10 11 10 10 10 12
14 14 14 14 15 12 4 1 2 29 13 3 3 3 1 8 9 3 3 4 3 1 3 4 4 4 5 4 11 12 12 17 18 19 17 16 16 8 7 12 10 8 8 9
13 10 7 10 8 7 8 29 19 28 11 2 5 4 5 9 6 6 1 4 3 2 4 2 4 3 4 7 11 25 19 12 13 18 16 22 15 7 10 13 11 11 10 9
15 10 10 7 5 4 6 12 16 13 6 5 4 9 6 7 6 4 3 4 6 2 5 5 6 8 10 11 18 18 18 17 23 19 20 22 17 22 19 15 14 14 14 12
15 10 5 4 6 9 15 4 1 2 2 1 3 5 5 11 7 3 5 2 3 4 7 5 7 14 17 14 17 14 14 21 21 20 21 19 21 21 21 21 16 16 15 13
8 4 3 3 9 5 1 4 4 3 5 4 4 5 11 3 10 6 2 5 5 4 5 8 6 7 13 23 24 22 24 24 24 22 22 19 19 17 17 16 16 14 16 15
11 8 5 3 3 1 5 5 3 6 8 7 10 8 8 4 4 4 4 4 4 6 7 4 5 4 12 15 21 25 25 22 22 21 21 19 19 18 17 15 13 16 16 17
12 2 3 2 3 4 5 7 4 4 8 10 11 13 5 3 2 4 4 8 6 6 5 6 4 3 7 13 16 18 12 11 14 17 16 19 17 21 20 15 18 15 12 14
2 4 6 4 4 5 5 4 2 3 6 14 17 11 5 4 4 4 5 3 5 5 6 6 6 9 13 13 9 7 9 11 11 12 11 14 14 13 16 16 14 15 13 13
3 3 6 8 3 3 3 2 2 3 13 16 11 6 4 3 4 2 5 4 7 8 4 5 4 12 10 10 10 10 8 8 8 8 9 10 11 10 11 13 13 13 12 14
3 3 3 5 3 3 1 2 3 7 11 12 5 4 5 4 6 6 8 7 8 4 6 5 4 8 9 6 7 8 6 7 7 7 8 8 9 9 10 12 13 14 16 16
4 4 4 4 3 2 3 6 6 10 13 12 4 6 6 6 5 6 6 6 4 5 3 4 6 4 3 5 5 6 7 7 7 8 9 8 9 11 13 11 12 12 12 13
Wind_Direction
235 230 229 219 205 194 179 159 218 166 159 190 209 218 195 166 162 169 143 146 157 196 177 186 198 205 250 161 197 329 89 309 283 305 355 264 306 36 16 330 8 298 309 62
241 227 223 220 205 191 151 184 150 174 202 202 207 179 195 195 157 182 170 172 185 169 190 208 195 205 125 144 228 98 147 180 292 176 173 164 279 326 27 327 274 258 318 41
267 235 226 215 208 196 183 158 180 166 203 279 224 183 194 191 195 160 152 141 142 152 196 225 181 196 169 169 166 66 191 230 259 289 323 318 278 251 286 267 271 352 258 335
276 281 222 220 205 197 184 194 213 177 186 212 207 198 188 182 176 189 167 158 197 167 172 195 213 197 175 157 164 146 238 260 255 269 278 279 270 270 271 239 260 270 61 277
272 270 286 214 211 190 200 184 178 219 163 164 198 198 200 193 170 166 192 216 193 183 183 204 187 180 201 196 159 173 189 256 287 285 260 241 265 258 259 248 255 256 268 269
273 279 267 275 204 188 192 193 138 203 165 162 171 208 204 196 162 201 193 203 150 196 218 162 74 77 139 166 172 169 216 254 294 281 281 300 261 273 209 199 217 229 233 110
263 269 262 254 203 189 195 199 184 194 199 196 198 175 194 200 197 204 177 177 183 140 113 105 95 79 95 190 164 226 181 191 243 292 307 260 69 110 134 261 264 220 211 173
252 256 267 250 242 203 192 189 200 214 214 203 200 186 184 189 182 169 168 157 112 145 123 131 153 177 188 116 65 208 230 208 229 271 283 299 175 180 193 211 289 217 215 178
245 257 271 270 247 202 189 195 195 245 220 215 183 178 174 165 177 144 120 93 139 132 118 158 200 220 201 173 137 74 175 237 249 198 259 249 55 109 163 172 266 163 190 177
248 255 264 270 271 208 193 190 190 178 228 174 168 184 178 148 168 157 134 149 160 220 151 175 189 218 288 193 181 166 155 180 219 223 254 274 237 146 177 212 44 121 185 181
239 246 253 249 248 191 207 185 196 170 153 292 238 168 144 133 178 158 140 123 181 164 184 189 179 213 201 205 146 178 178 166 191 196 223 258 157 129 227 81 130 162 190 196
241 244 245 246 252 241 256 170 188 181 147 203 277 259 161 185 164 130 178 176 153 163 166 193 148 181 175 198 211 196 208 215 185 206 220 32 185 85 191 167 163 177 203 218
243 235 243 248 251 220 230 284 155 149 108 238 304 216 194 178 168 164 146 197 147 167 67 149 155 201 173 179 218 184 220 192 242 220 221 224 229 234 236 223 229 226 218 237
246 235 235 240 245 243 229 216 177 169 124 153 217 238 210 192 175 157 131 131 108 109 148 148 158 189 206 203 191 212 167 158 203 246 253 261 247 236 242 240 237 246 248 232
237 235 232 236 232 232 233 207 211 202 192 149 162 167 201 167 165 135 130 133 122 147 158 166 196 125 169 176 188 224 186 190 198 234 218 234 274 182 215 216 226 236 235 229
231 229 229 233 224 227 211 217 196 197 195 110 151 20 132 141 157 131 129 119 96 160 162 182 184 124 216 211 234 238 211 221 224 243 253 248 270 244 210 224 232 232 232 239
219 214 209 206 200 200 208 222 355 194 163 95 99 124 85 171 137 103 120 79 97 240 170 224 198 193 197 236 234 249 207 218 220 233 249 254 240 241 214 223 227 205 219 243
206 203 201 192 192 219 250 252 278 162 95 106 137 132 154 183 158 178 39 183 175 224 237 155 203 148 216 242 211 238 238 212 231 233 228 240 258 253 240 228 225 213 219 220
204 194 168 157 192 186 219 217 220 168 119 141 165 153 155 164 139 127 152 180 180 127 225 216 185 207 220 204 220 232 233 216 234 236 232 243 244 252 250 230 227 226 228 218
187 170 169 191 206 182 128 85 14 88 58 134 155 139 135 170 155 126 123 164 204 193 208 147 228 242 238 226 240 247 241 226 233 239 238 232 236 240 243 238 232 231 236 231
175 198 191 57 103 123 148 174 202 146 166 167 160 162 137 180 163 136 196 162 172 220 184 203 227 239 217 224 233 239 242 238 239 235 244 240 231 243 243 240 230 228 233 233
181 135 97 78 40 279 203 181 156 213 167 161 150 150 126 137 148 129 177 156 176 236 141 217 244 191 215 210 223 232 237 241 242 238 239 239 241 239 241 239 235 228 226 229
144 125 99 127 179 245 223 176 184 186 163 168 149 146 117 113 128 106 145 180 205 131 207 234 236 215 208 220 228 240 237 222 234 240 236 233 233 232 232 236 230 228 210 209
123 143 174 202 221 234 230 226 262 108 160 149 148 134 138 139 160 133 153 135 154 226 236 236 235 199 225 225 225 204 200 205 217 226 218 215 217 221 219 220 215 208 202 196
164 150 190 209 213 256 252 263 188 162 161 150 139 89 110 104 103 163 117 151 234 223 235 225 198 212 219 221 216 217 219 195 200 201 201 201 200 199 199 200 196 191 172 167
151 206 209 189 183 212 243 243 201 180 167 146 99 99 133 169 151 164 199 190 223 215 221 221 187 223 224 209 195 203 198 189 187 187 187 178 183 186 183 171 172 170 167 163
185 244 239 254 109 182 217 200 202 180 172 167 128 147 169 122 178 198 202 216 196 225 222 202 209 203 170 168 160 166 164 166 172 170 171 165 157 153 155 156 155 151 150 149
Height
763 768 774 780 784 790 796 798 796 798 800 799 798 789 789 791 794 798 800 801 803 804 808 811 811 810 809 814 813 814 817 816 811 802 803 807 805 804 802 802 803 801 802 786
749 755 762 771 777 780 787 790 792 797 799 789 789 790 791 790 794 794 798 800 801 805 807 811 809 811 813 815 815 813 814 814 808 801 805 805 803 805 808 807 807 795 797 783
742 745 752 759 768 774 780 784 785 794 794 789 778 781 784 788 790 791 793 797 801 806 810 808 810 810 813 815 814 819 815 814 811 805 801 807 805 805 803 806 799 788 786 785
741 739 741 749 756 768 773 774 764 761 776 779 778 774 771 781 790 789 791 801 797 801 812 813 809 809 811 816 816 818 815 812 813 806 804 806 804 804 802 805 792 792 787 791
736 734 727 728 746 754 765 757 759 767 757 764 772 775 771 771 779 781 787 790 790 797 799 797 803 804 805 805 815 813 818 809 815 803 803 807 803 795 796 797 795 792 788 788
730 729 726 728 728 743 740 749 749 747 756 757 762 757 758 764 768 775 773 777 788 796 789 792 796 800 799 802 806 809 814 813 811 795 800 796 785 778 785 785 783 780 783 776
724 723 722 723 720 722 729 741 748 743 744 748 744 748 753 760 760 759 773 776 778 788 792 797 801 808 810 810 813 809 814 814 816 804 794 792 781 779 781 783 778 778 781 782
717 716 715 715 713 713 723 732 739 733 731 742 748 744 747 755 760 768 770 777 777 784 787 795 801 807 811 817 820 815 813 812 809 808 798 779 773 781 780 781 771 769 773 779
709 709 709 707 709 710 709 720 729 731 728 730 729 741 744 753 755 769 776 783 783 783 788 793 792 789 784 802 814 820 820 816 813 813 808 794 775 778 777 777 778 768 770 774
700 702 703 702 703 700 706 708 721 733 731 723 728 727 736 743 747 752 769 777 783 782 782 790 792 786 790 787 791 810 813 815 810 803 804 784 767 775 779 780 773 769 770 772
693 697 697 698 700 700 702 701 713 718 729 726 726 723 726 739 738 745 762 769 778 780 778 780 786 786 783 784 780 794 792 800 803 801 805 795 767 779 777 761 766 767 770 773
688 691 693 695 697 693 699 701 704 715 725 732 732 723 719 720 726 739 750 738 752 756 762 776 779 784 786 775 772 788 783 772 775 778 767 761 764 760 761 764 763 765 766 769
681 683 685 689 689 691 695 696 700 712 722 729 729 718 720 724 723 726 738 750 748 751 753 764 766 768 771 773 770 769 775 778 776 775 750 762 765 761 762 763 763 763 763 764
676 677 681 685 688 690 696 697 696 703 715 720 723 720 721 720 723 724 728 737 747 750 755 757 761 763 766 760 759 760 760 771 765 762 754 761 759 756 755 756 760 761 762 760
672 675 677 680 686 690 684 687 692 697 701 706 722 719 719 717 724 726 729 736 742 747 753 753 754 758 766 773 772 760 760 751 755 746 740 741 739 745 748 752 754 754 757 757
667 671 674 676 678 682 684 686 687 691 695 703 715 715 715 720 723 725 730 736 742 744 745 743 750 755 756 762 747 739 740 741 737 735 736 741 737 742 744 746 747 749 751 751
663 667 671 674 676 679 683 680 681 685 690 699 718 717 719 722 724 731 736 737 742 744 744 747 746 752 757 750 737 732 731 730 733 731 734 738 735 735 738 742 742 745 746 748
662 666 669 672 675 679 677 675 679 680 689 700 710 718 719 720 721 732 736 737 745 746 739 752 745 753 753 745 727 717 719 727 727 724 729 726 725 730 731 736 738 740 741 744
660 664 668 672 676 676 672 673 679 678 685 694 700 698 704 715 718 728 738 734 740 751 741 738 740 730 726 712 714 708 708 715 710 716 721 719 725 720 722 729 732 732 733 737
658 662 664 665 665 665 668 675 678 676 684 687 678 680 695 698 709 723 728 732 731 738 729 741 731 701 697 703 701 698 699 700 704 708 707 709 712 713 712 714 719 721 724 729
654 656 656 660 660 663 669 671 671 673 676 680 680 674 685 700 698 713 720 724 727 725 711 719 697 683 686 687 686 688 686 688 689 690 691 695 700 704 705 706 710 715 718 720
651 652 657 659 664 667 662 657 661 655 647 666 661 674 676 698 701 709 723 711 727 709 723 720 689 671 668 672 672 670 667 674 678 682 684 689 692 694 698 700 702 708 710 714
649 651 657 661 663 657 648 645 644 640 644 650 651 669 681 696 696 701 708 710 703 715 711 691 670 660 660 657 655 655 661 667 671 673 677 681 686 690 693 694 697 701 704 709
648 653 656 656 651 650 638 628 620 628 630 630 635 655 669 685 687 691 695 699 706 702 693 670 650 654 647 646 651 657 659 663 666 670 674 677 680 684 688 690 693 696 700 704
646 649 644 644 639 644 641 639 636 633 631 627 640 655 664 678 685 688 704 707 691 670 652 645 638 637 641 644 649 650 652 657 662 666 670 673 676 679 682 685 689 693 697 702
642 644 640 637 640 638 637 634 629 628 626 628 635 653 671 674 670 680 675 677 665 645 642 633 634 637 637 639 643 645 649 654 658 663 666 669 673 675 678 684 688 691 695 699
638 632 629 629 629 632 634 630 630 629 625 628 641 651 653 660 662 664 648 639 631 632 625 627 633 634 635 638 640 644 649 654 658 662 665 668 671 675 679 683 689 693 696 700